Home > Weather > Kyiv > Past weeks

Flag for Ukraine Past Weather in Kyiv, Ukraine — Yesterday and Last 2 Weeks

Now
63 °F

Broken clouds.


Feels Like: 63 °F
Forecast: 54 / 71 °F
Wind: 15 mph from Northwest

Location: Kyiv

Current Time: May 24, 2016 at 3:00:17 PM

Latest Report: May 24, 2016 at 2:30 PM


Visibility: N/A

Pressure: 29.80 "Hg

Humidity: 64%

Dew Point: 50 °F

Location of KyivLocation

Past Weather in Kyiv — Graph

°F

Kyiv Temperature Yesterday

Maximum temperature yesterday: 72 °F (at 12:30 PM)
Minimum temperature yesterday: 46 °F (at 5:30 AM)
Average temperature yesterday: 62 °F

High & Low Weather Summary for the Past Weeks

 TemperatureHumidityPressure
High73 °F (May 10, 2:00 PM)100% (May 10, 4:30 AM)30.24 "Hg (May 10, 4:30 AM)
Low41 °F (May 18, 5:30 AM)33% (May 9, 6:30 PM)29.45 "Hg (May 14, 5:00 AM)
Average58 °F75%29.84 "Hg
* Reported May 9 1:00 PM — May 24 1:30 PM, Kyiv, Weather by CustomWeather, © 2016

Note: Actual official high and low records may vary slightly from our data, if they occured in-between our weather recording intervals... More about our weather records

Advertising

Kyiv Weather History for the Previous 24 Hours

Scroll right to see more
 ConditionsComfort  
Time TempWeatherWind HumidityBarometerVisibility
1:30 PM
Tue, May 24
68 °FBroken clouds.3 mph49%29.80 "Hg6 mi
1:00 PM68 °FPartly sunny.3 mph46%29.80 "HgN/A
12:30 PM68 °FPartly sunny.3 mph46%29.80 "HgN/A
12:00 PM70 °FPartly sunny.3 mph46%29.80 "HgN/A
11:30 AM70 °FSunny.1 mph46%29.80 "Hg10 mi
11:00 AM68 °FSunny.3 mph49%29.83 "Hg10 mi
10:30 AM66 °FPassing clouds.6 mph52%29.83 "HgN/A
10:00 AM66 °FPassing clouds.6 mph52%29.83 "HgN/A
9:30 AM64 °FSunny.3 mph60%29.83 "Hg10 mi
9:00 AM64 °FPassing clouds.3 mph60%29.83 "HgN/A
8:30 AM63 °FSunny.3 mph64%29.83 "Hg10 mi
8:00 AM63 °FPassing clouds.3 mph68%29.86 "HgN/A
7:30 AM61 °FPassing clouds.3 mph77%29.86 "HgN/A
7:00 AM59 °FSunny.No wind77%29.86 "Hg10 mi
6:30 AM54 °FSunny.No wind100%29.86 "Hg10 mi
6:00 AM50 °FClear.No wind100%29.86 "Hg6 mi
5:30 AM48 °FClear.No wind100%29.86 "Hg5 mi
5:00 AM48 °FClear.No wind100%29.86 "Hg4 mi
4:30 AM48 °FClear.No wind100%29.86 "Hg10 mi
4:00 AM48 °FClear.No wind100%29.86 "Hg10 mi
3:30 AM50 °FClear.1 mph94%29.86 "Hg10 mi
3:00 AM50 °FClear.No wind100%29.86 "Hg10 mi
2:30 AM52 °FClear.No wind94%29.89 "Hg10 mi
2:00 AM52 °FClear.No wind94%29.89 "Hg10 mi
1:30 AM50 °FClear.1 mph94%29.89 "Hg10 mi
1:00 AM52 °FClear.No wind94%29.89 "Hg10 mi
12:30 AM55 °FClear.1 mph82%29.92 "Hg10 mi
12:00 AM55 °FClear.1 mph82%29.92 "Hg10 mi
11:30 PM
Mon, May 23
59 °FClear.6 mph72%29.92 "Hg10 mi
11:00 PM59 °FClear.8 mph72%29.92 "Hg10 mi
10:30 PM61 °FClear.13 mph68%29.92 "Hg10 mi
10:00 PM61 °FPassing clouds.8 mph63%29.92 "HgN/A
9:30 PM59 °FSunny.1 mph63%29.89 "Hg10 mi
9:00 PM61 °FSunny.No wind55%29.89 "Hg10 mi
8:30 PM64 °FSunny.3 mph49%29.89 "Hg10 mi
8:00 PM68 °FSunny.3 mph43%29.89 "Hg10 mi
7:30 PM70 °FSunny.6 mph40%29.89 "Hg10 mi
7:00 PM68 °FPassing clouds.6 mph40%29.89 "HgN/A
6:30 PM68 °FSunny.6 mph43%29.89 "Hg10 mi
6:00 PM72 °FPassing clouds.3 mph41%29.89 "HgN/A
5:30 PM70 °FPassing clouds.3 mph38%29.89 "HgN/A
5:00 PM72 °FPassing clouds.8 mph36%29.92 "HgN/A
4:30 PM72 °FPassing clouds.8 mph38%29.92 "HgN/A
4:00 PM72 °FSunny.3 mph38%29.92 "Hg10 mi
3:30 PM70 °FPassing clouds.8 mph38%29.92 "HgN/A
3:00 PM68 °FPassing clouds.8 mph40%29.95 "HgN/A
Weather by CustomWeather, © 2016

See weather overviewHow to use our weather pages